Lunedi 17 Dicembre 2018

 
Calliano - Provincia di Trento

189 mslm

45° 55' 59'' N 11° 05' 53'' E

Pagine realizzate e gestite da Andrea Pernecher

 

Tutti gli orari sono riferiti all'ora solare (GMT+1h)

>stazione meteo :: i dati del giorno  

 Dati relativi a LUNEDI 17 DICEMBRE 2018 ORE 20.39
 

 TEMPERATURA

-2,0 °C

 

 ESCURS. TERMICA 5,8 °C

 

 

 TEMPERATURA MIN

-1,3 °C

alle 19:57

 

 TEMPERATURA MAX 4,5 °C

alle 14:57

 

 TEMP.MEDIA INTEG.

0.7 °C

       
 

 PRESSIONE

1.025 mbar

 

 UMIDITA' 55 %

 

 PIOGGIA

0,0 mm

 

 INTENS. PIOGGIA 0,0 mm/h

 

 VENTO MAX

5,3 m/s

N

 

 DEW POINT

-9,8 °C

 
Immagini WebCam
ORE 8.00 ORE 12.00 ORE 16.00

> visualizza webcam 24 ore

 

 Dettaglio rilevazioni di Lunedi 17 Dicembre 2018 (ogni 15 minuti)
Ora Temperatura °C Umidità R. % Pressione mbar Vento m/s Dew Point °C Pioggia totale caduta mm Intensità della pioggia mm/h
  TEMPERATURA UMIDITA' PRESSIONE VENTO DEW POINT PIOGGIA INTENS. PIOGGIA
20:15 -1,7 54 1.025 0,0 ESE -9,8 0,0 0,0
20:00 -1,3 53 1.025 1,4 ESE -9,6 0,0 0,0
19:45 -1,0 54 1.024 1,0 NNE -9,1 0,0 0,0
19:30 -1,0 52 1.024 1,4 NNE -9,6 0,0 0,0
19:15 -1,0 50 1.024 0,0 ENE -10,1 0,0 0,0
19:00 -0,7 48 1.023 0,0 ENE -10,3 0,0 0,0
18:45 -0,6 47 1.023 0,0 ENE -10,5 0,0 0,0
18:30 -0,4 45 1.023 1,4 NE -10,9 0,0 0,0
18:15 0,0 44 1.023 0,0 NE -10,8 0,0 0,0
18:00 0,4 43 1.023 0,0 NE -10,7 0,0 0,0
17:45 1,0 42 1.023 0,0 NE -10,5 0,0 0,0
17:30 1,6 41 1.022 0,0 NE -10,2 0,0 0,0
17:15 2,0 40 1.022 1,2 NE -10,2 0,0 0,0
17:00 2,7 40 1.021 0,0 N -9,5 0,0 0,0
16:45 2,9 40 1.021 2,8 NNE -9,4 0,0 0,0
16:30 3,4 40 1.021 1,6 ENE -8,9 0,0 0,0
16:15 3,6 39 1.021 2,6 ENE -9,1 0,0 0,0
16:00 3,8 39 1.021 2,6 NE -8,9 0,0 0,0
15:45 4,1 39 1.021 1,8 NE -8,6 0,0 0,0
15:30 4,4 39 1.021 1,6 N -8,3 0,0 0,0
15:15 4,5 39 1.020 1,8 ENE -8,3 0,0 0,0
15:00 4,5 39 1.020 0,0 NNE -8,3 0,0 0,0
14:45 4,3 39 1.020 2,2 NE -8,4 0,0 0,0
14:30 4,3 39 1.020 2,8 NNE -8,4 0,0 0,0
14:15 4,0 40 1.020 2,8 NE -8,4 0,0 0,0
14:00 3,7 40 1.020 1,6 NNE -8,6 0,0 0,0
13:45 3,3 41 1.020 2,6 NE -8,7 0,0 0,0
13:30 2,8 42 1.020 2,8 NE -8,8 0,0 0,0
13:15 2,5 42 1.019 2,2 NE -9,1 0,0 0,0
13:00 2,3 42 1.020 3,4 NNE -9,3 0,0 0,0
12:45 2,1 42 1.020 3,4 NE -9,5 0,0 0,0
12:30 2,0 43 1.020 2,2 ENE -9,3 0,0 0,0
12:15 1,9 43 1.019 2,4 NE -9,4 0,0 0,0
12:00 1,7 43 1.020 2,4 NE -9,5 0,0 0,0
11:45 1,7 43 1.020 2,6 NNE -9,5 0,0 0,0
11:30 1,5 43 1.020 3,9 ENE -9,7 0,0 0,0
11:15 1,4 44 1.020 2,6 NE -9,5 0,0 0,0
11:00 1,3 44 1.020 2,6 NNE -9,6 0,0 0,0
10:45 1,1 45 1.020 3,4 NNE -9,5 0,0 0,0
10:30 0,9 45 1.020 2,2 NE -9,7 0,0 0,0
10:15 0,7 46 1.020 1,4 NE -9,6 0,0 0,0
10:00 0,5 46 1.020 1,6 NNE -9,8 0,0 0,0
09:45 0,7 45 1.020 2,6 NNE -9,9 0,0 0,0
09:30 0,6 45 1.020 2,8 NNE -10,0 0,0 0,0
09:15 0,5 45 1.020 3,4 ENE -10,1 0,0 0,0
09:00 0,3 46 1.019 2,6 N -10,0 0,0 0,0
08:45 0,1 47 1.019 2,6 ENE -9,9 0,0 0,0
08:30 -0,1 47 1.019 1,6 NE -10,1 0,0 0,0
08:15 -0,1 46 1.019 1,8 NE -10,3 0,0 0,0
08:00 0,1 46 1.018 2,8 NE -10,1 0,0 0,0
07:45 0,3 45 1.018 2,2 NE -10,2 0,0 0,0
07:30 -0,1 47 1.017 2,4 NE -10,1 0,0 0,0
07:15 0,0 47 1.018 2,4 NE -10,0 0,0 0,0
07:00 -0,3 48 1.018 2,6 E -10,0 0,0 0,0
06:45 -0,2 48 1.018 3,2 NE -9,9 0,0 0,0
06:30 -0,2 48 1.018 2,4 NE -9,9 0,0 0,0
06:15 -0,3 48 1.018 2,2 NNE -10,0 0,0 0,0
06:00 -0,5 50 1.018 2,8 ENE -9,6 0,0 0,0
05:45 -0,6 50 1.018 3,6 ENE -9,7 0,0 0,0
05:30 -0,6 50 1.017 2,4 ENE -9,7 0,0 0,0
05:15 -0,4 49 1.017 3,2 NNE -9,8 0,0 0,0
05:00 -0,4 49 1.017 1,8 NNE -9,8 0,0 0,0
04:45 -0,7 51 1.017 2,4 ENE -9,6 0,0 0,0
04:30 -0,8 51 1.017 2,4 ENE -9,7 0,0 0,0
04:15 -0,6 50 1.017 2,8 ENE -9,7 0,0 0,0
04:00 -0,5 49 1.017 2,6 N -9,9 0,0 0,0
03:45 -0,4 50 1.017 2,4 ENE -9,5 0,0 0,0
03:30 -0,9 51 1.017 2,4 ENE -9,8 0,0 0,0
03:15 -0,9 51 1.017 1,4 NNE -9,8 0,0 0,0
03:00 -0,7 51 1.017 1,2 N -9,6 0,0 0,0
02:45 -0,7 51 1.017 2,6 NE -9,6 0,0 0,0
02:30 -0,8 51 1.017 2,6 ENE -9,7 0,0 0,0
02:15 -1,0 51 1.017 2,6 ENE -9,9 0,0 0,0
02:00 -0,7 50 1.017 1,8 NE -9,8 0,0 0,0
01:45 -0,4 49 1.017 1,2 NNE -9,8 0,0 0,0
01:30 -0,3 50 1.017 1,6 NE -9,5 0,0 0,0
01:15 -0,6 51 1.017 2,8 ENE -9,5 0,0 0,0
01:00 -0,5 51 1.017 2,8 ENE -9,4 0,0 0,0
00:45 -0,5 51 1.017 1,8 NE -9,4 0,0 0,0
00:30 -0,7 52 1.018 1,6 N -9,3 0,0 0,0
00:15 -1,0 53 1.018 1,2 NNE -9,4 0,0 0,0
00:00 -1,0 52 1.017 0,0 ENE -9,6 0,0 0,0

 

 

Stampa paginastampa    torna in cima

 2002-2018 osservatoriocalliano.it